Вернуться в каталог

STARLINK-37403

АктивенСвязьSSO
NORAD 68788·PAYLOAD·🇺🇸 United States

Запущен Apr 19, 2026 с Vandenberg Space Force Base

Loading…

Ближайшие Пролёты (ближайшие 24 часа)

TLE

СвежийSource: CelesTrak SupGP

Эпоха: Sep 14, 2026, 14:33 UTC

1 68788C 26086Y   26257.60673611  .00008841  00000+0  27440-3 0  2578
2 68788  97.2848 293.1842 0001107 106.7598 338.6603 15.33441949    14

Отслеживайте STARLINK-37403 в реальном времени с AllMySat

Download on the App Store